OneWeb SL0273

operational
NORAD ID: 48991 Int'l Des: 2021-060 Owner: ONEWEBN Country: UK Constellation: oneweb
LEOCIRCULARPOLARONEWEB_TYPE

关于 OneWeb SL0273

正在加载描述...

实时位置

正在加载3D地球...

即将过境

高度历史

Altitude vs Time

uPlot chart will show altitude changes over time

两行轨道根数

1 48991U 21060AA 26062.50340546 .00000089 00000-0 19820-3 0 9993
2 48991 87.8999 249.8072 0001682 99.5106 260.6215 13.16592943225680
Epoch: Mar 3, 2026 • Age: 28 hours

当前状态

高度 1209.3 km
速度 7.25 km/s
星下点 -28.96°S, 21.3°E
发射日期 Jul 1, 2021
运行时间 4.6 years
类型 internet

技术详情

分类 Payload
质量 148.00 kg
干质量 140.00 kg
总质量 148.00 kg
长度 1.30 m
直径 1.00 m
跨度 5.00 m
形状 Trapezoid+2 pan
制造商 ONEWUS
平台类型 ARROW
阶段状态 In Orbit
所有者/国家 ONEWEBN/UK

大型星座

Loading constellations...